Regional Weather Roundup
Issued by NWS

Home | Current Version | Previous Version | Graphics & Text | Print | Product List | Glossary On
Versions: 1 2 3 4 5 6 7 8 9 10 11 12 13 14 15 16 17 18 19 20 21 22 23 24 25 26 27 28 29 30 31 32 33 34 35 36 37 38 39 40 41 42 43 44 45 46 47 48 49 50
000
ASUS43 KLMK 201610
RWRKY
KENTUCKY REGIONAL WEATHER ROUNDUP
NATIONAL WEATHER SERVICE LOUISVILLE KY
1100 AM EST FRI JAN 20 2017

NOTE "FAIR" INDICATES FEW OR NO CLOUDS BELOW 12,000 FEET
WITH NO SIGNIFICANT WEATHER AND/OR OBSTRUCTIONS TO VISIBILITY.

KYZ001>023-026-027-061>063-070>075-201700-
WESTERN AND SOUTH CENTRAL KENTUCKY

CITY           SKY/WX    TMP DP  RH WIND       PRES   REMARKS
PADUCAH        CLOUDY    56  51  84 S5        29.73S HAZE
HENDERSON      PTSUNNY   57  48  72 SW15      29.74S
OWENSBORO      PTSUNNY   58  51  78 SW14      29.76R
HOPKINSVILLE   PTSUNNY   60  57  89 SW12      29.78R
BOWLING GREEN  PTSUNNY   61  54  77 SW9       29.79S
GLASGOW        CLOUDY    57  56  97 SW9       29.80S
$$

KYZ024-025-028>034-038-045-046-053-201700-
NORTH CENTRAL KENTUCKY

CITY           SKY/WX    TMP DP  RH WIND       PRES   REMARKS
LOUISVILLE/SDF CLOUDY    59  52  77 SW10      29.75R
LOUISVILLE/LOU CLOUDY    59  53  80 SW9       29.75S
FORT KNOX      CLOUDY    57  54  88 SW9G18    29.75R
$$

KYZ035>037-039>044-047>052-055>060-089>105-201700-
NORTHEAST KENTUCKY

CITY           SKY/WX    TMP DP  RH WIND       PRES   REMARKS
LEXINGTON      CLOUDY    58  53  84 SW13      29.78S
COVINGTON      CLOUDY    56  53  90 SW13G20   29.73R
FRANKFORT      PTSUNNY   59  52  77 SW14G22   29.75S
$$

KYZ054-064>069-076>088-106>120-201700-
SOUTHEAST KENTUCKY

CITY           SKY/WX    TMP DP  RH WIND       PRES   REMARKS
JACKSON        CLOUDY    57  53  86 CALM      29.82R
LONDON         PTSUNNY   59  52  77 SW13      29.83S
SOMERSET       PTSUNNY   55  55 100 W3        29.84S
MIDDLESBORO    CLOUDY    58  55  88 S9        29.85S
MONTICELLO     CLOUDY    59  55  87 W15       29.85R
$$





USA.gov is the U.S. government's official web portal to all federal, state and local government web resources and services.